GW3899 Weather Reports


time (UTC)temp
F
wind
direction
speed
knots
gust
knots
rain 1hr
in
rain 24hr
in
rain mn
in
humidity
%
barometer
mb
20260510203356 64 204 2.6 4.3 0.00 0.00 0.00 1 1021.6
20260510202851 64 134 1.7 1.7 0.00 0.00 0.00 1 1021.8
20260510202347 64 130 1.7 1.7 0.00 0.00 0.00 1 1021.5
20260510201844 64 105 1.7 2.6 0.00 0.00 0.00 1 1021.5
20260510201341 63 70 4.3 4.3 0.00 0.00 0.00 1 1021.9
20260510200837 63 144 0.9 0.9 0.00 0.00 0.00 1 1021.7
20260510200336 63 35 2.6 2.6 0.00 0.00 0.00 1 1022.0
20260510195830 63 357 3.5 4.3 0.00 0.00 0.00 1 1022.0
20260510195327 64 8 2.6 2.6 0.00 0.00 0.00 1 1021.8
20260510194823 63 214 2.6 2.6 0.00 0.00 0.00 1 1022.0
20260510194319 64 196 3.5 4.3 0.00 0.00 0.00 1 1022.0
20260510193815 64 112 0.9 1.7 0.00 0.00 0.00 1 1021.7
20260510193310 63 126 2.6 5.2 0.00 0.00 0.00 1 1021.7
20260510192806 64 328 3.5 5.2 0.00 0.00 0.00 1 1021.7
20260510192301 64 357 4.3 5.2 0.00 0.00 0.00 1 1021.9
20260510191757 64 15 4.3 5.2 0.00 0.00 0.00 1 1021.9
20260510191253 64 9 4.3 6.1 0.00 0.00 0.00 1 1021.8
20260510190752 63 3 4.3 5.2 0.00 0.00 0.00 1 1021.8
20260510190248 63 3 7.0 8.7 0.00 0.00 0.00 1 1021.6
20260510185744 64 24 2.6 4.3 0.00 0.00 0.00 1 1021.7
20260510185244 64 31 6.1 7.8 0.00 0.00 0.00 1 1021.7
20260510184740 64 63 2.6 2.6 0.00 0.00 0.00 1 1021.3
20260510184237 64 77 1.7 1.7 0.00 0.00 0.00 1 1021.4
20260510183737 64 337 6.1 7.0 0.00 0.00 0.00 1 1021.5
20260510183232 64 135 1.7 1.7 0.00 0.00 0.00 1 1021.4
20260510182729 64 99 2.6 2.6 0.00 0.00 0.00 1 1021.4
20260510182224 64 123 1.7 4.3 0.00 0.00 0.00 1 1021.4
20260510181721 64 13 3.5 6.1 0.00 0.00 0.00 1 1021.2
20260510181218 64 104 3.5 5.2 0.00 0.00 0.00 1 1021.2
20260510180714 65 0 4.3 5.2 0.00 0.00 0.00 1 1021.2
20260510180212 65 97 2.6 2.6 0.00 0.00 0.00 1 1021.1
20260510175708 65 79 2.6 2.6 0.00 0.00 0.00 1 1021.2
20260510175204 65 83 2.6 2.6 0.00 0.00 0.00 1 1021.1
20260510174701 65 27 4.3 7.0 0.00 0.00 0.00 1 1021.3
20260510174159 64 71 7.8 9.6 0.00 0.00 0.00 1 1020.8
20260510173654 63 59 2.6 2.6 0.00 0.00 0.00 1 1021.1
20260510173150 63 353 6.1 8.7 0.00 0.00 0.00 1 1021.2
20260510172646 66 35 6.1 7.0 0.00 0.00 0.00 1 1021.0
20260510172142 66 18 7.8 8.7 0.00 0.00 0.00 1 1021.1
20260510171639 65 6 4.3 5.2 0.00 0.00 0.00 1 1021.0
20260510171137 64 14 3.5 5.2 0.00 0.00 0.00 1 1021.1
20260510170633 65 71 7.0 11.3 0.00 0.00 0.00 1 1021.3
20260510170130 66 93 7.0 8.7 0.00 0.00 0.00 1 1021.3
20260510165625 65 139 3.5 6.1 0.00 0.00 0.00 1 1021.1
20260510165121 65 41 3.5 4.3 0.00 0.00 0.00 1 1021.2
20260510164619 66 23 9.6 11.3 0.00 0.00 0.00 1 1021.2
20260510164115 66 330 4.3 6.1 0.00 0.00 0.00 1 1020.9
20260510163610 65 110 2.6 4.3 0.00 0.00 0.00 1 1021.0
20260510163108 65 70 4.3 5.2 0.00 0.00 0.00 1 1021.0
20260510162602 65 137 2.6 2.6 0.00 0.00 0.00 1 1021.3
20260510162059 65 63 4.3 8.7 0.00 0.00 0.00 1 1021.2
20260510161554 64 29 5.2 7.8 0.00 0.00 0.00 1 1021.2
20260510161052 64 107 4.3 6.1 0.00 0.00 0.00 1 1021.1
20260510160549 64 113 2.6 2.6 0.00 0.00 0.00 1 1021.5
20260510160048 63 99 2.6 2.6 0.00 0.00 0.00 1 1021.1
20260510155545 63 358 4.3 5.2 0.00 0.00 0.00 1 1021.1
20260510155041 63 81 2.6 2.6 0.00 0.00 0.00 1 1021.4
20260510154537 63 359 4.3 5.2 0.00 0.00 0.00 1 1021.4
20260510154032 62 95 3.5 5.2 0.00 0.00 0.00 1 1021.3
20260510153527 62 45 4.3 6.1 0.00 0.00 0.00 1 1021.3
20260510153025 61 122 2.6 2.6 0.00 0.00 0.00 1 1021.4
20260510152521 61 319 4.3 6.1 0.00 0.00 0.00 1 1021.4
20260510152018 61 2 6.1 7.8 0.00 0.00 0.00 1 1021.5
20260510151514 61 62 4.3 5.2 0.00 0.00 0.00 1 1021.2
20260510151012 62 337 2.6 5.2 0.00 0.00 0.00 1 1021.0
20260510150507 62 27 4.3 5.2 0.00 0.00 0.00 1 1021.0
20260510150003 63 116 4.3 6.1 0.00 0.00 0.00 1 1021.1
20260510145500 63 24 4.3 6.1 0.00 0.00 0.00 1 1020.9
20260510144956 62 29 5.2 6.1 0.00 0.00 0.00 1 1020.7
20260510144454 62 302 3.5 5.2 0.00 0.00 0.00 1 1020.9
20260510143949 62 134 0.9 1.7 0.00 0.00 0.00 1 1020.8
20260510143445 60 117 4.3 6.1 0.00 0.00 0.00 1 1020.6
20260510142942 60 104 3.5 5.2 0.00 0.00 0.00 1 1020.5
20260510142438 61 79 3.5 5.2 0.00 0.00 0.00 1 1020.4
20260510141934 61 68 4.3 7.0 0.00 0.00 0.00 1 1020.5
20260510141432 60 72 2.6 2.6 0.00 0.00 0.00 1 1020.5
20260510140929 60 120 2.6 4.3 0.00 0.00 0.00 1 1020.7
20260510140425 60 55 4.3 5.2 0.00 0.00 0.00 1 1020.6
20260510135924 60 45 6.1 7.0 0.00 0.00 0.00 1 1020.0
20260510135421 60 100 2.6 4.3 0.00 0.00 0.00 1 1019.9
20260510134918 60 27 4.3 5.2 0.00 0.00 0.00 1 1019.9
20260510134410 59 349 5.2 6.1 0.00 0.00 0.00 1 1019.7
20260510133905 59 41 5.2 6.1 0.00 0.00 0.00 1 1019.6
20260510133402 58 46 2.6 4.3 0.00 0.00 0.00 1 1019.6
20260510132857 58 53 3.5 5.2 0.00 0.00 0.00 1 1019.7
20260510132356 57 8 2.6 4.3 0.00 0.00 0.00 1 1019.7
20260510131852 58 60 4.3 5.2 0.00 0.00 0.00 1 1019.3
20260510131350 57 44 4.3 5.2 0.00 0.00 0.00 1 1019.7
20260510130846 57 31 4.3 6.1 0.00 0.00 0.00 1 1019.5
20260510130343 57 134 2.6 2.6 0.00 0.00 0.00 1 1019.5
20260510125840 57 88 2.6 4.3 0.00 0.00 0.00 1 1019.2
20260510125336 56 118 2.6 2.6 0.00 0.00 0.00 1 1019.5
20260510124834 56 7 4.3 5.2 0.00 0.00 0.00 1 1019.5
20260510124329 56 75 3.5 4.3 0.00 0.00 0.00 1 1019.2
20260510123820 55 347 3.5 5.2 0.00 0.00 0.00 1 1019.5
20260510123315 55 103 2.6 2.6 0.00 0.00 0.00 1 1019.3
20260510122812 55 346 6.1 7.8 0.00 0.00 0.00 1 1019.2
20260510122308 55 98 1.7 1.7 0.00 0.00 0.00 1 1019.1
20260510121804 55 91 3.5 5.2 0.00 0.00 0.00 1 1018.9
20260510121302 55 94 1.7 1.7 0.00 0.00 0.00 1 1019.0
20260510120759 55 59 3.5 5.2 0.00 0.00 0.00 1 1018.7
20260510120255 55 42 4.3 5.2 0.00 0.00 0.00 1 1018.7
20260510115751 55 25 1.7 2.6 0.00 0.00 0.00 1 1018.4
20260510115249 55 111 1.7 1.7 0.00 0.00 0.00 1 1018.4
20260510114744 55 119 1.7 2.6 0.00 0.00 0.00 1 1018.6
20260510114242 55 184 0.9 1.7 0.00 0.00 0.00 1 1018.5
20260510113737 55 0 1.7 2.6 0.00 0.00 0.00 1 1018.6
20260510113234 55 57 2.6 2.6 0.00 0.00 0.00 1 1018.5
20260510112730 56 133 1.7 1.7 0.00 0.00 0.00 1 1018.3
20260510112228 56 338 2.6 5.2 0.00 0.00 0.00 1 1018.2
20260510111723 56 49 2.6 2.6 0.00 0.00 0.00 1 1018.0
20260510111220 56 117 2.6 2.6 0.00 0.00 0.00 1 1018.1
20260510110720 56 32 3.5 5.2 0.00 0.00 0.00 1 1017.9
20260510110218 57 72 1.7 1.7 0.00 0.00 0.00 1 1017.9
20260510105717 57 349 3.5 5.2 0.00 0.00 0.00 1 1017.8
20260510105217 57 30 4.3 6.1 0.00 0.00 0.00 1 1017.5
20260510104714 57 21 4.3 5.2 0.00 0.00 0.00 1 1017.6
20260510104212 57 139 1.7 1.7 0.00 0.00 0.00 1 1017.2
20260510103708 57 50 4.3 6.1 0.00 0.00 0.00 1 1017.0
20260510103205 58 81 4.3 5.2 0.00 0.00 0.00 1 1016.7
20260510102700 58 118 1.7 1.7 0.00 0.00 0.00 1 1016.8
20260510102156 58 132 0.9 1.7 0.00 0.00 0.00 1 1016.7
20260510101654 58 16 4.3 6.1 0.00 0.00 0.00 1 1016.6
20260510101152 58 96 2.6 2.6 0.00 0.00 0.00 1 1016.6
20260510100647 58 57 2.6 2.6 0.00 0.00 0.00 1 1016.5
20260510100145 58 154 0.9 1.7 0.00 0.00 0.00 1 1016.7
20260510095640 58 119 0.9 0.9 0.00 0.00 0.00 1 1016.4
20260510095136 58 144 0.9 1.7 0.00 0.00 0.00 1 1016.3
20260510094634 58 144 0.9 0.9 0.00 0.00 0.00 1 1016.5
20260510094131 58 126 0.9 1.7 0.00 0.00 0.00 1 1016.4
20260510093622 58 87 2.6 2.6 0.00 0.00 0.00 1 1016.6
20260510093119 58 140 0.0 0.0 0.00 0.00 0.00 1 1016.5
20260510092615 58 135 0.0 0.0 0.00 0.00 0.00 1 1016.5
20260510092116 58 144 0.0 0.9 0.00 0.00 0.00 1 1016.7
20260510091612 58 165 1.7 1.7 0.00 0.00 0.00 1 1016.4
20260510091108 58 172 1.7 1.7 0.00 0.00 0.00 1 1016.4
20260510090605 58 135 0.0 0.0 0.00 0.00 0.00 1 1015.8
20260510090101 58 136 0.0 0.0 0.00 0.00 0.00 1 1016.1
20260510085556 58 146 0.0 0.0 0.00 0.00 0.00 1 1016.2
20260510085052 58 160 0.0 0.0 0.00 0.00 0.00 1 1016.2
20260510084549 59 147 0.0 0.0 0.00 0.00 0.00 1 1015.8
20260510084046 59 141 0.0 0.0 0.00 0.00 0.00 1 1015.6
20260510083542 59 104 1.7 1.7 0.00 0.00 0.00 1 1015.8
20260510083038 59 124 0.9 1.7 0.00 0.00 0.00 1 1015.6
20260510082535 59 144 0.9 0.9 0.00 0.00 0.00 1 1015.6
20260510082031 59 76 2.6 2.6 0.00 0.00 0.00 1 1015.6
20260510081526 59 100 1.7 1.7 0.00 0.00 0.00 1 1015.4
20260510081022 59 130 0.9 0.9 0.00 0.00 0.00 1 1015.2
20260510080521 59 145 0.0 0.9 0.00 0.00 0.00 1 1015.3
20260510080018 59 180 2.6 2.6 0.00 0.00 0.00 1 1015.2
20260510075515 59 123 2.6 2.6 0.00 0.00 0.00 1 1014.9
20260510075012 59 128 0.9 0.9 0.00 0.00 0.00 1 1014.8
20260510074510 59 132 0.9 0.9 0.00 0.00 0.00 1 1014.9
20260510074005 60 142 0.0 0.0 0.00 0.00 0.00 1 1015.0
20260510073501 59 140 0.0 0.0 0.00 0.00 0.00 1 1014.8
20260510072958 60 122 0.9 0.9 0.00 0.00 0.00 1 1014.9
20260510072455 60 121 0.9 0.9 0.00 0.00 0.00 1 1014.8
20260510071950 60 125 0.9 1.7 0.00 0.00 0.00 1 1014.8
20260510071447 60 101 1.7 1.7 0.00 0.00 0.00 1 1014.8
20260510070945 60 143 0.0 0.0 0.00 0.00 0.00 1 1015.0
20260510070442 60 147 0.0 0.0 0.00 0.00 0.00 1 1015.0
20260510065938 60 108 0.9 0.9 0.00 0.00 0.00 1 1014.9
20260510065435 60 125 0.0 0.0 0.00 0.00 0.00 1 1015.0
20260510064931 60 141 0.0 0.0 0.00 0.00 0.00 1 1015.0
20260510064428 61 139 0.0 0.0 0.00 0.00 0.00 1 1015.1
20260510063925 61 114 1.7 1.7 0.00 0.00 0.00 1 1015.1
20260510063421 61 125 0.9 0.9 0.00 0.00 0.00 1 1015.2
20260510062919 61 146 1.7 2.6 0.00 0.00 0.00 1 1015.5
20260510062414 61 133 1.7 1.7 0.00 0.00 0.00 1 1015.0
20260510061910 61 104 1.7 1.7 0.00 0.00 0.00 1 1014.9
20260510061407 62 121 0.9 1.7 0.00 0.00 0.00 1 1014.7
20260510060902 62 154 0.0 0.0 0.00 0.00 0.00 1 1014.7
20260510060359 62 145 0.0 0.0 0.00 0.00 0.00 1 1014.5
20260510055856 62 146 0.0 0.0 0.00 0.00 0.00 1 1014.4
20260510055355 62 119 0.9 0.9 0.00 0.00 0.00 1 1014.5
20260510054848 62 139 0.9 0.9 0.00 0.00 0.00 1 1014.2
20260510054344 62 132 0.9 0.9 0.00 0.00 0.00 1 1014.4
20260510053839 62 101 1.7 1.7 0.00 0.00 0.00 1 1014.4
20260510053334 62 122 0.9 0.9 0.00 0.00 0.00 1 1014.1
20260510052831 62 142 0.0 0.0 0.00 0.00 0.00 1 1014.3
20260510052321 62 148 0.0 0.0 0.00 0.00 0.00 1 1014.0
20260510051818 63 159 0.0 0.0 0.00 0.00 0.00 1 1014.0
20260510051315 63 141 0.0 0.0 0.00 0.00 0.00 1 1013.8
20260510050811 63 140 0.0 0.0 0.00 0.00 0.00 1 1013.7
20260510050303 63 147 0.0 0.0 0.00 0.00 0.00 1 1013.9
20260510045800 63 148 0.0 0.0 0.00 0.00 0.00 1 1013.8
20260510045256 64 147 0.0 0.0 0.00 0.00 0.00 1 1013.6
20260510044754 64 141 0.0 0.0 0.00 0.00 0.00 1 1013.6
20260510044250 64 140 0.0 0.0 0.00 0.00 0.00 1 1013.4
20260510043746 64 141 0.9 0.9 0.00 0.00 0.00 1 1013.2
20260510043242 64 141 0.0 0.0 0.00 0.00 0.00 1 1013.2
20260510042740 64 144 0.0 0.0 0.00 0.00 0.00 1 1013.4
20260510042235 65 135 0.0 0.9 0.00 0.00 0.00 1 1013.2
20260510041732 65 108 0.9 1.7 0.00 0.00 0.00 1 1013.1
20260510041230 65 137 0.0 0.9 0.00 0.00 0.00 1 1013.0
20260510040726 66 138 0.0 0.0 0.00 0.00 0.00 1 1013.2
20260510040223 65 144 0.0 0.0 0.00 0.00 0.00 1 1013.2
20260510035718 65 143 0.0 0.0 0.00 0.00 0.00 1 1013.0
20260510035209 65 144 0.0 0.0 0.00 0.00 0.00 1 1013.1
20260510034705 66 141 0.9 0.9 0.00 0.00 0.00 1 1013.2
20260510034202 66 138 0.0 0.9 0.00 0.00 0.00 1 1013.2
20260510033658 66 139 0.0 0.0 0.00 0.00 0.00 1 1013.0
20260510033157 66 145 0.0 0.0 0.00 0.00 0.00 1 1013.1
20260510032652 66 94 1.7 1.7 0.00 0.00 0.00 1 1013.2
20260510032148 67 140 0.0 0.0 0.00 0.00 0.00 1 1013.1
20260510031643 67 50 1.7 1.7 0.00 0.00 0.00 1 1013.2
20260510031140 67 118 0.9 0.9 0.00 0.00 0.00 1 1013.1
20260510030634 68 73 2.6 2.6 0.00 0.00 0.00 1 1013.0
20260510030132 68 22 3.5 5.2 0.00 0.00 0.00 1 1012.8
20260510025629 69 121 2.6 2.6 0.00 0.00 0.00 1 1012.5
20260510025126 69 104 5.2 7.0 0.00 0.00 0.00 1 1012.8
20260510024623 70 0 7.8 8.7 0.00 0.00 0.00 1 1012.4
20260510024119 70 52 6.1 7.0 0.00 0.00 0.00 1 1012.4
20260510023615 70 154 0.9 0.9 0.00 0.00 0.00 1 1011.2
20260510023113 70 153 0.9 0.9 0.00 0.00 0.00 1 1011.2
20260510022613 69 164 1.7 1.7 0.00 0.00 0.00 1 1011.2
20260510022108 69 150 0.9 1.7 0.00 0.00 0.00 1 1010.9
20260510021604 69 152 0.9 0.9 0.00 0.00 0.00 1 1010.9
20260510021102 69 154 0.9 0.9 0.00 0.00 0.00 1 1010.9
20260510020555 69 145 0.9 0.9 0.00 0.00 0.00 1 1010.8
20260510020051 70 163 0.9 0.9 0.00 0.00 0.00 1 1010.8
20260510015547 70 149 0.0 0.9 0.00 0.00 0.00 1 1010.8
20260510015044 70 149 0.9 0.9 0.00 0.00 0.00 1 1010.7
20260510014534 70 148 0.9 0.9 0.00 0.00 0.00 1 1010.5
20260510014032 70 147 0.9 0.9 0.00 0.00 0.00 1 1010.3
20260510013526 71 147 0.9 1.7 0.00 0.00 0.00 1 1010.5
20260510013022 71 146 0.9 0.9 0.00 0.00 0.00 1 1010.3
20260510012516 71 141 0.9 0.9 0.00 0.00 0.00 1 1010.2
20260510012013 72 147 0.9 0.9 0.00 0.00 0.00 1 1010.2
20260510011513 72 145 0.0 0.9 0.00 0.00 0.00 1 1010.0
20260510011008 73 155 0.0 0.0 0.00 0.00 0.00 1 1010.2
20260510010506 73 148 0.9 0.9 0.00 0.00 0.00 1 1010.1
20260510010003 74 148 0.0 0.9 0.00 0.00 0.00 1 1010.0
20260510005458 74 156 0.9 0.9 0.00 0.00 0.00 1 1010.2
20260510004956 74 159 0.9 1.7 0.00 0.00 0.00 1 1010.0
20260510004453 75 158 0.9 1.7 0.00 0.00 0.00 1 1010.1
20260510003952 75 166 1.7 1.7 0.00 0.00 0.00 1 1010.1
20260510003448 75 157 0.9 0.9 0.00 0.00 0.00 1 1010.1
20260510002943 76 146 0.9 1.7 0.00 0.00 0.00 1 1009.9
20260510002439 76 148 0.9 0.9 0.00 0.00 0.00 1 1009.9
20260510001936 77 166 1.7 1.7 0.00 0.00 0.00 1 1010.0
20260510001433 77 160 0.9 0.9 0.00 0.00 0.00 1 1009.8
20260510000931 77 165 0.9 0.9 0.00 0.00 0.00 1 1009.8
20260510000427 78 156 0.0 0.0 0.00 0.00 0.00 1 1009.8
20260509235923 78 159 0.9 0.9 0.00 0.00 0.00 1 1009.7
20260509235420 79 168 2.6 2.6 0.00 0.00 0.00 1 1009.7
20260509234916 79 184 1.7 2.6 0.00 0.00 0.00 1 1009.7
20260509234414 79 189 2.6 2.6 0.00 0.00 0.00 1 1009.8
20260509233912 79 170 2.6 2.6 0.00 0.00 0.00 1 1009.6
20260509233409 79 140 0.9 1.7 0.00 0.00 0.00 1 1009.9
20260509232904 80 161 2.6 2.6 0.00 0.00 0.00 1 1009.7
20260509232402 79 188 2.6 2.6 0.00 0.00 0.00 1 1009.7
20260509231857 80 147 0.9 1.7 0.00 0.00 0.00 1 1010.1
20260509231355 80 171 1.7 1.7 0.00 0.00 0.00 1 1009.8
20260509230852 80 164 4.3 4.3 0.00 0.00 0.00 1 1010.0
20260509230349 80 151 0.9 1.7 0.00 0.00 0.00 1 1009.7
20260509225844 80 169 2.6 4.3 0.00 0.00 0.00 1 1009.6
20260509225342 80 168 2.6 4.3 0.00 0.00 0.00 1 1009.8
20260509224838 80 154 2.6 2.6 0.00 0.00 0.00 1 1009.6
20260509224334 81 192 3.5 4.3 0.00 0.00 0.00 1 1009.9
20260509223831 81 157 2.6 2.6 0.00 0.00 0.00 1 1009.7
20260509223328 80 180 3.5 4.3 0.00 0.00 0.00 1 1009.2
20260509222825 80 193 7.8 8.7 0.00 0.00 0.00 1 1009.5
20260509222320 81 188 3.5 4.3 0.00 0.00 0.00 1 1009.5
20260509221816 81 173 4.3 5.2 0.00 0.00 0.00 1 1009.6
20260509221314 81 201 2.6 2.6 0.00 0.00 0.00 1 1009.6
20260509220813 81 230 4.3 7.0 0.00 0.00 0.00 1 1009.7
20260509220310 80 173 2.6 4.3 0.00 0.00 0.00 1 1009.6
20260509215806 81 213 5.2 7.0 0.00 0.00 0.00 1 1009.6
20260509215305 80 243 3.5 4.3 0.00 0.00 0.00 1 1009.8
20260509214759 81 265 6.1 7.0 0.00 0.00 0.00 1 1009.5
20260509214256 80 237 4.3 6.1 0.00 0.00 0.00 1 1009.8
20260509213753 81 296 2.6 5.2 0.00 0.00 0.00 1 1009.7
20260509213249 81 190 4.3 6.1 0.00 0.00 0.00 1 1009.6
20260509212746 81 229 3.5 4.3 0.00 0.00 0.00 1 1009.6
20260509212244 81 183 3.5 4.3 0.00 0.00 0.00 1 1009.8
20260509211739 80 298 4.3 6.1 0.00 0.00 0.00 1 1009.9
20260509211236 80 166 3.5 5.2 0.00 0.00 0.00 1 1010.0
20260509210732 81 256 4.3 6.1 0.00 0.00 0.00 1 1009.9
20260509210231 80 225 3.5 5.2 0.00 0.00 0.00 1 1010.1
20260509205724 80 294 4.3 7.0 0.00 0.00 0.00 1 1010.0
20260509205224 81 160 4.3 5.2 0.00 0.00 0.00 1 1010.1
20260509204720 80 163 1.7 2.6 0.00 0.00 0.00 1 1010.1
20260509204217 80 153 1.7 1.7 0.00 0.00 0.00 1 1010.1
20260509203712 80 197 1.7 2.6 0.00 0.00 0.00 1 1009.9